Wind_Speed
10 5 5 3 3 7 10 11 12 13 14 15 15 16 16 16 15 15 16 17 17 17 18 19 19 18 18 18 17 15 15 16 16 17 17 17 17 19 18 17 16 18 18
10 6 5 4 2 4 7 9 12 14 14 16 17 17 18 17 17 18 18 19 19 17 18 18 18 18 18 16 15 15 13 15 16 15 15 16 16 16 16 18 17 14 12
10 5 6 4 2 2 6 9 12 14 14 15 18 18 19 19 19 19 20 19 19 17 18 19 19 17 17 15 14 12 12 13 14 14 13 11 13 14 12 10 10 12 12
10 7 6 4 5 3 5 9 12 13 13 14 18 19 20 20 20 20 20 19 18 16 17 18 17 16 17 15 12 10 10 14 15 14 12 11 12 13 13 14 14 13 14
11 10 9 7 6 4 7 11 13 13 13 14 18 20 20 20 19 20 20 19 18 15 16 16 15 15 15 14 12 10 12 15 15 15 11 11 13 14 14 14 15 14 15
12 11 10 8 6 6 9 12 14 14 13 15 19 19 20 21 20 16 16 13 14 15 14 13 13 12 13 13 12 11 13 15 13 11 11 13 14 15 14 14 14 13 13
15 14 13 11 9 9 11 14 16 15 15 16 19 19 20 23 25 13 19 14 5 12 12 13 12 12 13 14 13 11 13 14 12 10 10 10 14 14 14 13 13 14 15
19 18 15 13 11 12 14 15 17 18 18 18 19 19 22 27 26 22 19 15 11 17 13 12 13 14 16 15 14 13 14 15 12 11 11 9 12 14 14 13 13 15 14
23 21 19 17 15 14 15 17 18 19 19 18 19 20 24 27 22 23 24 13 18 21 16 15 15 15 18 16 14 14 14 13 11 11 12 9 12 12 14 14 15 17 16
24 24 23 21 19 17 18 19 20 20 19 19 21 22 25 27 23 26 25 16 21 23 16 15 18 16 18 16 14 14 13 11 10 11 10 12 14 12 13 15 18 17 14
25 27 27 25 23 21 20 20 21 21 20 20 23 25 28 25 27 26 24 23 23 20 18 14 17 16 18 16 14 13 12 9 12 11 11 13 12 13 13 15 15 15 12
24 28 30 29 28 24 24 22 23 24 23 24 26 27 33 25 25 26 22 26 25 21 20 21 18 17 19 18 17 15 11 11 12 11 12 13 13 14 14 13 14 14 14
17 19 28 31 31 28 27 26 25 26 24 23 24 25 32 26 26 26 23 30 26 21 21 22 20 18 20 17 17 17 13 13 12 12 13 15 14 14 13 14 14 14 15
15 18 21 29 32 31 31 29 28 26 27 26 26 28 29 32 27 26 26 34 32 25 27 26 20 17 21 19 19 18 15 13 13 12 14 16 14 14 14 14 14 14 13
15 17 20 23 28 33 34 33 32 31 28 29 30 30 31 32 30 30 36 38 33 27 26 27 21 22 23 24 20 17 15 13 14 13 13 16 14 13 15 16 14 13 12
12 14 16 20 23 28 35 37 35 34 32 29 28 30 34 35 35 37 39 37 37 29 27 27 24 24 24 22 20 17 15 14 15 14 13 15 15 13 16 16 14 14 12
16 17 18 20 23 27 30 37 38 37 34 33 31 31 35 36 38 41 42 42 38 36 30 28 27 25 25 23 20 19 15 15 15 15 14 14 14 15 15 13 13 12 12
19 20 20 21 25 27 29 30 40 39 37 36 32 32 34 37 38 37 42 40 43 40 36 33 28 27 26 24 21 19 16 16 15 16 14 14 14 13 16 15 13 12 11
17 20 22 25 29 30 29 28 32 37 38 37 33 31 32 33 37 34 41 37 47 43 39 38 34 30 30 24 22 21 18 16 15 15 16 15 15 14 12 15 14 12 10
15 19 26 29 31 28 25 29 34 39 40 36 35 32 30 31 33 35 36 40 45 42 45 42 37 31 29 28 24 21 18 16 15 15 15 16 15 15 14 13 13 11 10
15 15 19 25 27 24 27 33 40 43 40 38 35 28 30 30 29 31 36 37 43 47 49 47 43 36 31 31 29 23 18 17 16 14 14 15 15 15 15 14 13 12 11
18 16 14 15 18 22 26 34 36 38 37 35 31 27 28 29 28 30 37 37 47 51 55 51 49 39 34 34 33 27 19 15 15 16 15 16 17 15 16 16 15 14 12
17 16 13 11 16 19 22 27 27 33 34 32 30 27 28 27 28 33 36 40 45 55 56 55 53 45 37 36 33 32 24 16 23 19 18 17 18 16 15 16 16 16 14
18 16 9 9 14 17 24 28 31 32 35 32 26 25 26 27 28 31 35 37 47 59 55 58 54 48 41 40 32 29 24 20 28 18 19 20 19 19 18 17 18 17 14
19 19 10 8 12 16 25 25 26 23 19 19 22 19 24 25 24 24 29 30 39 53 51 52 56 47 45 42 39 32 25 21 24 18 23 24 20 20 19 20 21 16 14
17 19 16 9 11 17 24 27 23 20 18 16 18 19 23 21 17 18 14 26 36 52 49 53 54 50 42 40 37 36 30 26 25 20 16 23 24 21 19 22 20 16 13
Wind_Direction
165 140 85 63 247 246 229 215 207 211 211 213 206 202 199 190 185 175 173 173 173 174 171 167 164 162 156 150 147 141 132 133 135 134 131 133 130 127 124 116 107 115 120
168 137 97 74 43 267 232 213 203 204 209 213 208 204 200 192 189 180 177 176 175 171 173 171 166 161 156 154 146 139 138 142 143 141 139 132 132 133 132 127 138 123 127
168 156 135 119 145 232 226 201 196 199 204 211 209 205 196 195 190 184 179 175 175 174 169 165 164 167 166 164 154 151 150 153 147 137 109 122 132 141 140 143 139 139 136
179 184 183 188 192 195 202 197 193 197 199 203 205 202 197 197 194 188 179 175 175 173 166 161 166 170 167 164 161 159 159 155 144 118 121 122 127 139 138 137 134 134 134
189 194 204 201 200 193 184 195 195 198 200 199 204 201 200 199 195 189 183 177 173 174 171 167 173 176 173 171 168 161 156 153 136 112 135 144 135 141 142 133 129 131 129
203 208 215 208 201 199 185 191 195 200 203 205 207 204 202 198 185 180 177 185 175 176 179 178 180 189 182 176 173 165 162 153 123 144 142 166 137 151 152 146 148 147 143
214 217 220 213 209 208 192 192 193 199 203 203 207 206 205 195 191 186 217 199 208 215 194 190 194 187 190 181 176 173 168 154 137 149 148 155 165 165 168 160 157 154 151
223 226 227 222 214 215 206 201 201 197 201 207 209 206 208 207 206 207 200 189 250 210 209 207 206 200 192 185 180 181 175 163 145 155 148 191 169 175 179 180 176 172 168
222 227 231 230 221 216 214 210 210 208 201 201 206 204 206 217 224 214 201 236 205 199 217 215 209 212 190 185 186 186 184 167 161 160 155 198 177 181 185 192 193 190 186
226 227 231 231 227 221 217 214 214 214 211 202 205 209 210 212 224 213 213 227 212 216 230 210 206 207 191 187 193 191 191 179 163 166 157 199 177 177 195 193 193 190 180
233 230 232 234 231 226 224 221 216 216 215 210 208 210 214 220 217 206 222 231 210 207 201 204 200 211 193 192 195 198 190 168 173 161 172 194 175 167 171 170 168 168 173
239 236 233 235 234 229 227 224 221 216 212 211 211 212 208 216 209 208 215 210 202 210 213 208 204 204 195 191 190 188 162 181 162 160 184 169 167 157 159 161 168 153 152
241 230 235 236 236 231 231 225 221 221 212 214 212 212 212 210 203 211 210 206 206 214 207 210 205 193 178 180 182 174 182 173 173 162 181 167 162 159 166 155 154 153 147
237 232 238 245 241 237 235 231 227 221 218 215 217 217 213 210 211 208 209 203 205 210 203 199 191 201 181 177 182 180 176 173 169 164 172 164 172 165 164 155 163 154 150
245 245 251 254 256 244 240 236 232 228 224 220 223 223 223 218 212 214 215 208 218 211 199 198 196 188 184 179 178 176 174 175 171 161 168 168 180 175 162 165 166 155 149
255 257 256 262 256 255 246 241 235 231 231 229 228 232 230 228 230 224 214 215 223 206 201 197 187 186 182 179 179 174 177 173 169 161 169 177 183 174 176 169 164 154 149
261 266 259 258 262 253 253 243 236 234 232 230 231 231 233 237 234 227 223 232 224 214 208 189 191 184 181 177 179 174 176 171 174 165 164 180 178 181 178 172 167 156 155
267 264 260 254 260 254 244 236 232 231 233 231 232 235 233 235 237 236 234 236 224 222 222 206 186 183 183 179 179 175 175 171 171 171 170 178 179 183 180 180 173 171 170
270 264 259 254 260 254 241 223 220 225 231 230 227 233 241 240 238 236 235 237 223 221 214 208 198 187 184 180 178 175 176 173 171 175 183 180 179 180 181 192 183 181 175
286 277 265 257 257 245 232 220 219 224 230 229 231 234 241 244 233 227 235 230 226 228 212 204 206 187 189 183 176 174 175 177 175 180 184 189 188 178 178 197 186 189 186
300 294 281 258 247 230 226 213 218 221 223 226 232 238 245 232 224 226 233 230 231 229 213 202 201 186 189 184 175 170 171 179 179 185 187 193 194 188 188 188 192 195 205
324 300 286 261 240 224 221 214 219 221 223 228 235 241 238 225 226 226 224 231 223 222 215 203 196 187 187 181 177 173 165 177 189 190 192 194 197 195 195 194 197 198 201
327 311 276 256 237 218 208 212 208 217 222 225 231 236 230 227 228 229 232 235 221 226 210 202 195 186 185 183 183 180 171 188 186 197 196 196 200 192 196 197 195 199 195
339 333 286 258 253 230 207 213 206 212 214 222 232 235 222 225 233 238 243 239 210 207 211 204 199 190 187 182 184 188 194 189 180 181 200 202 201 200 200 201 197 200 203
349 351 319 271 268 237 213 206 203 207 213 225 228 228 221 230 237 236 239 232 233 219 217 206 194 188 189 185 184 187 193 185 189 188 187 199 206 206 209 208 205 217 221
350 341 343 292 266 237 215 204 203 208 210 214 215 217 220 224 231 219 231 235 207 204 204 207 197 194 191 189 189 189 192 190 190 194 195 196 202 205 203 211 217 217 219
Height
1499 1499 1500 1500 1501 1502 1503 1505 1506 1508 1510 1513 1516 1518 1519 1520 1520 1521 1524 1526 1528 1530 1531 1533 1535 1536 1538 1539 1539 1540 1542 1543 1545 1546 1547 1549 1550 1551 1553 1554 1554 1554 1555
1499 1498 1499 1500 1501 1501 1502 1504 1506 1507 1509 1512 1515 1517 1519 1520 1521 1522 1524 1526 1528 1530 1531 1534 1536 1539 1541 1541 1542 1543 1544 1545 1547 1548 1549 1551 1552 1554 1554 1556 1556 1556 1558
1498 1499 1500 1500 1499 1500 1501 1503 1506 1508 1510 1512 1514 1516 1518 1521 1522 1523 1525 1527 1529 1530 1532 1534 1537 1539 1540 1542 1544 1545 1546 1547 1549 1551 1553 1556 1555 1556 1557 1557 1558 1559 1560
1497 1498 1499 1499 1499 1499 1500 1504 1506 1508 1510 1511 1514 1516 1518 1520 1522 1524 1525 1528 1531 1533 1535 1535 1538 1539 1541 1543 1545 1547 1547 1549 1552 1554 1558 1558 1558 1557 1558 1559 1560 1561 1561
1497 1497 1497 1498 1498 1498 1499 1502 1506 1508 1511 1512 1514 1516 1518 1521 1524 1526 1528 1529 1531 1535 1536 1537 1539 1541 1542 1545 1546 1547 1549 1551 1554 1556 1560 1561 1560 1559 1560 1562 1563 1564 1564
1496 1497 1496 1497 1498 1499 1499 1500 1504 1507 1511 1513 1514 1517 1519 1520 1525 1529 1526 1531 1530 1535 1538 1538 1539 1542 1544 1545 1547 1549 1551 1552 1556 1560 1561 1560 1561 1561 1562 1563 1563 1565 1566
1494 1495 1495 1496 1497 1498 1499 1499 1501 1505 1509 1512 1515 1517 1519 1520 1520 1518 1522 1528 1534 1534 1537 1537 1539 1542 1545 1546 1548 1550 1553 1555 1559 1561 1563 1562 1560 1562 1563 1564 1565 1565 1567
1492 1493 1494 1496 1497 1498 1500 1500 1501 1502 1507 1511 1514 1517 1520 1519 1520 1522 1524 1526 1528 1535 1536 1537 1539 1542 1544 1547 1548 1551 1554 1556 1560 1562 1564 1561 1561 1562 1564 1565 1566 1566 1567
1489 1491 1492 1493 1495 1497 1498 1500 1502 1504 1505 1508 1513 1516 1518 1520 1522 1523 1525 1525 1527 1531 1532 1533 1537 1541 1543 1547 1549 1551 1555 1557 1561 1563 1565 1561 1562 1563 1564 1565 1567 1567 1568
1487 1488 1489 1491 1492 1494 1495 1497 1500 1503 1506 1507 1509 1514 1516 1520 1522 1524 1524 1526 1527 1528 1532 1533 1537 1540 1543 1546 1549 1552 1555 1558 1562 1563 1565 1561 1561 1563 1563 1565 1566 1567 1567
1483 1485 1486 1488 1490 1491 1493 1495 1498 1501 1505 1507 1508 1511 1514 1517 1520 1522 1524 1525 1527 1529 1531 1532 1535 1539 1543 1546 1549 1553 1556 1560 1562 1563 1565 1561 1561 1562 1563 1565 1565 1566 1568
1479 1481 1482 1484 1486 1489 1491 1492 1495 1498 1501 1504 1506 1508 1512 1514 1516 1519 1522 1525 1526 1529 1529 1532 1532 1536 1543 1545 1548 1553 1557 1560 1561 1563 1563 1561 1562 1563 1563 1565 1567 1567 1569
1478 1478 1478 1480 1482 1485 1487 1489 1491 1494 1498 1500 1504 1505 1508 1511 1513 1516 1520 1522 1525 1527 1529 1533 1534 1536 1542 1546 1549 1552 1557 1559 1561 1563 1561 1562 1563 1563 1565 1566 1567 1569 1570
1473 1473 1473 1475 1477 1480 1482 1484 1487 1489 1493 1496 1499 1501 1502 1505 1508 1511 1514 1517 1519 1522 1525 1528 1530 1535 1542 1545 1549 1552 1555 1559 1560 1562 1560 1563 1563 1564 1566 1566 1569 1569 1570
1467 1468 1468 1470 1471 1474 1476 1478 1481 1484 1486 1490 1492 1496 1498 1500 1502 1505 1508 1511 1516 1518 1521 1525 1527 1534 1539 1542 1547 1551 1554 1557 1558 1561 1561 1562 1564 1565 1566 1568 1570 1570 1571
1463 1464 1464 1465 1466 1467 1469 1471 1474 1478 1481 1484 1486 1489 1493 1495 1497 1500 1504 1506 1510 1514 1518 1522 1526 1533 1537 1541 1544 1549 1553 1555 1557 1559 1561 1562 1564 1565 1568 1568 1569 1570 1572
1460 1461 1460 1460 1460 1460 1461 1465 1468 1471 1475 1478 1481 1484 1487 1489 1492 1495 1498 1501 1505 1509 1513 1518 1523 1531 1535 1539 1542 1547 1551 1553 1556 1558 1561 1563 1564 1566 1568 1569 1569 1570 1572
1454 1455 1455 1454 1453 1453 1454 1456 1459 1464 1467 1471 1475 1477 1480 1483 1486 1490 1491 1495 1500 1504 1508 1514 1520 1527 1533 1536 1540 1545 1549 1552 1555 1558 1562 1564 1566 1567 1566 1568 1569 1571 1572
1447 1447 1446 1446 1445 1445 1447 1450 1453 1456 1459 1464 1469 1470 1472 1476 1480 1483 1486 1490 1492 1498 1502 1510 1516 1524 1529 1533 1537 1543 1548 1551 1553 1557 1561 1563 1565 1567 1568 1567 1569 1571 1572
1439 1437 1436 1437 1436 1437 1440 1443 1445 1447 1451 1457 1460 1463 1467 1468 1471 1476 1480 1484 1487 1493 1495 1504 1511 1520 1526 1530 1534 1540 1545 1549 1552 1556 1558 1562 1563 1565 1568 1567 1568 1570 1572
1432 1429 1427 1426 1426 1428 1430 1433 1435 1437 1443 1450 1454 1457 1460 1463 1465 1469 1473 1476 1480 1484 1488 1495 1504 1513 1521 1525 1530 1537 1543 1547 1550 1553 1556 1560 1561 1562 1565 1567 1569 1571 1571
1425 1423 1421 1419 1419 1421 1421 1426 1430 1435 1439 1444 1449 1451 1452 1456 1459 1462 1466 1470 1471 1476 1480 1488 1498 1507 1515 1519 1524 1531 1538 1545 1547 1550 1554 1557 1559 1561 1562 1564 1567 1569 1571
1423 1418 1417 1416 1414 1415 1420 1421 1426 1429 1434 1438 1440 1442 1445 1450 1453 1456 1460 1462 1460 1467 1472 1479 1490 1498 1506 1514 1520 1523 1530 1535 1542 1546 1549 1554 1556 1558 1560 1561 1563 1565 1565
1418 1413 1412 1411 1409 1410 1414 1416 1420 1422 1425 1429 1432 1435 1440 1444 1447 1449 1452 1454 1451 1456 1464 1472 1483 1493 1501 1506 1515 1522 1526 1530 1534 1542 1546 1550 1552 1554 1557 1559 1559 1561 1562
1413 1408 1407 1406 1404 1407 1410 1415 1418 1423 1427 1428 1428 1431 1435 1437 1440 1443 1444 1446 1448 1452 1459 1467 1476 1487 1494 1501 1507 1516 1522 1526 1531 1534 1539 1544 1548 1551 1553 1554 1556 1558 1561
1411 1407 1403 1401 1402 1405 1408 1412 1416 1421 1423 1425 1426 1428 1430 1431 1434 1437 1439 1440 1443 1446 1454 1462 1470 1480 1490 1497 1504 1510 1516 1520 1525 1530 1532 1537 1542 1546 1549 1551 1553 1556 1559